Volver al catálogo

STARLINK-31303

ActivoComunicacionesVLEO
NORAD 59239·PAYLOAD·🇺🇸 United States

Lanzado Mar 16, 2024 desde Cape Canaveral Space Force Station

Loading…

Próximos Pases (próximas 24 horas)

TLE

ActualizadoSource: CelesTrak SupGP

Época: Sep 15, 2026, 02:08 UTC

1 59239C 24049J   26258.08937500  .00065692  00000+0  23818-2 0  2581
2 59239  43.0021 143.0653 0001320 286.3075 193.5453 15.27512060    19

Sigue STARLINK-31303 en tiempo real con AllMySat

Download on the App Store